Flag for Albania Weather past 2 weeks in Tirana, Albania

Now
66 °F

Clear.


Feels Like: 66 °F
Forecast: 61 / 87 °F
Wind: No wind

Location: Tirana Airport

Current Time: Aug 30, 2014 at 6:59:56 AM

Latest Report: Aug 30, 2014 at 6:20 AM


Visibility: 10 mi

Pressure: 29.98 "Hg

Humidity: 88%

Dew point: 63 °F

Location of TiranaLocation

Historic Weather in Tirana — Graph

°F

Tirana temperature yesterday

Maximum temperature yesterday: 91 °F (at 3:20 PM)
Minimum temperature yesterday: 64 °F (at 2:20 AM)
Average temperature yesterday: 75 °F

Past Weeks' High & Low Weather Summary

 TemperatureHumidityPressure
High91 °F (Aug 28, 2:50 PM)94% (Aug 18, 2:50 AM)30.04 "Hg (Aug 18, 2:50 AM)
Low59 °F (Aug 19, 4:20 AM)25% (Aug 27, 11:50 AM)29.83 "Hg (Aug 27, 6:20 PM)
Average75 °F65%29.94 "Hg
* Reported Aug 15 5:20 AM — Aug 30 5:50 AM, Tirana, Weather by CustomWeather, © 2014

Note: Actual official high and low records may vary slightly from our data, if they occured in-between our weather recording intervals... More about our weather records

Advertising

Tirana weather history for previous 24 hours

 ConditionsComfort  
Time TempWeatherWind HumidityBarometerVisibility
5:50 AM
Aug 30
66 °FClear.5 mph88%29.98 "Hg10 mi
5:20 AM66 °FClear.5 mph88%29.98 "Hg10 mi
4:20 AM68 °FPassing clouds.3 mph83%29.98 "HgN/A
3:50 AM68 °FPassing clouds.5 mph88%29.98 "HgN/A
3:20 AM68 °FPassing clouds.3 mph88%29.98 "HgN/A
2:50 AM68 °FPassing clouds.2 mph88%29.98 "HgN/A
2:20 AM70 °FPassing clouds.2 mph83%29.98 "HgN/A
1:50 AM68 °FPassing clouds.No wind88%29.98 "HgN/A
12:50 AM70 °FPassing clouds.3 mph83%29.98 "HgN/A
12:20 AM68 °FPassing clouds.5 mph88%29.98 "HgN/A
11:50 PM
Aug 29
70 °FClear.3 mph88%29.98 "Hg10 mi
11:20 PM70 °FClear.5 mph88%29.98 "Hg10 mi
8:20 PM75 °FClear.2 mph74%29.95 "Hg10 mi
7:50 PM75 °FSunny.2 mph74%29.95 "Hg10 mi
7:20 PM75 °FClear.5 mph74%29.95 "HgN/A
6:50 PM79 °FSunny.6 mph65%29.95 "Hg10 mi
6:20 PM81 °FSunny.7 mph54%29.95 "Hg10 mi
5:50 PM81 °FSunny.9 mph51%29.95 "Hg10 mi
5:20 PM81 °FSunny.13 mph48%29.92 "Hg10 mi
4:50 PM84 °FSunny.13 mph45%29.92 "Hg10 mi
4:20 PM88 °FSunny.12 mph38%29.92 "Hg10 mi
3:50 PM90 °FClear.10 mph31%29.92 "HgN/A
3:20 PM91 °FPassing clouds.10 mph32%29.92 "HgN/A
1:50 PM90 °FPassing clouds.9 mph33%29.92 "HgN/A
1:20 PM90 °FSunny.9 mph36%29.92 "Hg10 mi
12:50 PM88 °FPassing clouds.8 mph38%29.92 "HgN/A
12:20 PM88 °FPassing clouds.7 mph40%29.92 "HgN/A
11:50 AM88 °FPassing clouds.6 mph38%29.95 "HgN/A
11:20 AM86 °FPassing clouds.5 mph46%29.95 "HgN/A
10:50 AM84 °FPassing clouds.3 mph51%29.95 "HgN/A
10:20 AM81 °FSunny.2 mph51%29.95 "Hg10 mi
9:50 AM79 °FPassing clouds.3 mph54%29.95 "HgN/A
9:20 AM77 °FWarm.2 mph61%29.95 "HgN/A
8:50 AM75 °FSunny.No wind65%29.95 "Hg10 mi
8:20 AM72 °FPassing clouds.2 mph78%29.95 "HgN/A
7:50 AM68 °FPassing clouds.2 mph83%29.95 "HgN/A
7:20 AM66 °FPassing clouds.2 mph83%29.92 "HgN/A
6:50 AM64 °FPassing clouds.2 mph88%29.92 "HgN/A
6:20 AM64 °FPassing clouds.No wind88%29.92 "HgN/A
Weather by CustomWeather, © 2014

See weather overviewHow to use our weather pages